CZ-2C R/B (43532 NORAD) Tracking and Keplerian Element Data

This shows tracking and keplerian element data for the satellite.

Feedback or suggestion? Click here.




ElementValue
Catalog43532
NameCZ-2C R/B
Epoch Orbit194
Epoch Day202.7623473
Epoch Year2018
RAAN274.4537
Inclination98.0544
Eccentricity0.0280099
Argument of Perigee126.3018
Mean Anonmoly236.4458
Mean Motion15.47227362
Decay Rate0.0008455
L11 43532U 18056D 18202.76234730 .00084550 39549-5 31971-3 0 9993
L22 43532 98.0544 274.4537 0280099 126.3018 236.4458 15.47227362 1945

Live tracking and technical data element details for CZ-2C R/B (NORAD 43532). CZ-2C R/B can be tracked NOW for your location showing map with azimuth and elevation plus other details from your city location.

Track the satellite on the map from your city or location and see movement details for azimuth, elevation, latitude, longitude, range, height, and movement on the map or in text.







IsCatalogInMostPopularTable: catalog: 43532, numindb: 5
Update: records affected: 1



GetName: 43532 CZ-2C R/B

Hit Count: updated at: Mon, 23 Jul 2018 07:42:02 GMT